Location: Doschendorf
(50.0069°N, 11.0602°E)
Time: 15:22:40
(UTC+00:00)

NOAA 12 - Pass Details

Date: 01 March 2020
Orbit: 795 x 815 km, 98.5° (Epoch: 04 April)

Event Time Altitude Azimuth Distance (km) Brightness Sun altitude
Rises 04:51:40 0° 24° (NNE) 3,354 7.7 -11.5°
Reaches altitude 10° 04:54:32 10° 39° (NE) 2,415 7.2 -11.1°
Maximum altitude 04:58:43 23° 91° (E) 1,672 6.9 -10.4°
Drops below altitude 10° 05:02:52 10° 143° (SE) 2,394 7.1 -9.7°
Sets 05:05:40 0° 157° (SSE) 3,316 7.6 -9.3°
